STARLINK-5464, 54758

Orbit data source: Space-Track

STARLINK-5464, 54758 is a payload satellite owned by SpaceX/Seattle (US) in LEO that was launched on Sat, 17 Dec 2022 UTC via an FALCON 9 launch vehicle from the Air Force Eastern Test Range (AFETR). Payload-class satellites include a variety of spacecraft equipped with specific instruments for various scientific and technological missions. These include communications satellites like Starlink; space stations such as the ISS; scientific satellites like the Hubble; Earth observation satellites from companies like Planet Labs, Umbra, and HawkEye 360; GPS; miniature CubeSats for education and research; and military/defense satellites.

Loading next visibility...
Identifier
54758, 2022-175A
Orbit
LEO
Last TLE update
9 hours ago
Origin
Manufacturer
SpaceX/Seattle
Mission
Operational Commercial Communications
Bus & Motor
STARLINK, Unknown motor
Mass
305 kg wet, ~290 kg dry
Launch date (UTC)
2022-12-17 (2 years ago)
Launch vehicle
FALCON 9
Launch site
Air Force Eastern Test Range (AFETR)
Object type
Payload
Rocket body
Debris
Shape & HBR
Box + 1 Pan, 8.86 m
Radar Cross Section
13.562 m², Large (>1 m²)

Expand to show TLE details & history

TLE from 9 hours ago
0 STARLINK-5464
1 54758U 22175A   25130.82094673  .00000026  00000-0  19746-4 0  9995
2 54758  53.2179 318.9440 0001306  94.8430 265.2711 15.08835930134267
Epoch: 2025-05-10T19:42Z
Definitive object data (Epoch: 2025-05-10T19:42:09.797Z)
Latitude
-0.00005°
Longitude
154.5459°
Altitude
540.728 km
Speed
7.593 km/s
True Right ascension
21h 15m 46s
True Declination
0° 00' 00"
Sunlit
Object was in daylight at TLE epoch
Visualization TLE readout
Latitude
-44.98585°
Longitude
104.8119°
Altitude
555.827 km
Speed
7.583 km/s
Apparent Right ascension
21h 35m 17s
Apparent Declination
-57° 39' 44"
Sunlit
Object is in full shadow
Visualization observer readout
Local Sidereal Time
13:14:36
Azimuth
135.844° SSE
Elevation
-51.121°
Doppler factor
1
Orbital elements
Apogee altitude
540.904 km
Perigee altitude
539.097 km
Semi-major axis
6,918.138 km
Eccentricity
0.0001306
Inclination
53.2179°
RAAN
318.944°
Arg. of periapsis
94.843°
True anomaly
265.25619°
Mean anomaly
265.2711°
Eccentric anomaly
265.26364°
Mean motion
3.77189 °/min
BSTAR
0.000019746
Orbital period
95.44 mins
Loading maneuver chart data...
Loading SW <> Apogee altitude chart data...
Loading historical data...
Loading historical data...
Loading historical data...
Loading historical data...
Loading historical data...
Loading historical data...
Loading historical data...

STARLINK-5464 Visibility forecast

Observer location: undefined°, undefined°

Span
Click to sort rows by Start time (UTC) header in descending order
Start Az.
Max El. time (UTC)
Max El. Az.
Max El.
End time (UTC)
End Az.
7 mins2025-05-11 14:57:07.517Z215.231° SW2025-05-11 15:00:07.517Z143.403° SSE41.907°2025-05-11 15:04:07.517Z55.56° ENE
5 mins2025-05-11 16:38:07.517Z298.117° NW2025-05-11 16:40:07.517Z342.169° N22.441°2025-05-11 16:43:07.517Z30.406° NE
6 mins2025-05-11 21:38:07.517Z319.588° NNW2025-05-11 21:41:07.517Z43.326° NE40.976°2025-05-11 21:44:07.517Z114.995° SE
|